Simultaneous Nadir Overpasses (SNOs) Predictions

Prediction of SNOs between GOES-17 and NOAA-20 Satellite Orbit:

Table of predicted SNOs for the next 14.0 days since TLE Epoch: 5/7/2022
Index Date Time (GOES-17) GOES-17 Lat,Lon NOAA-20 Lat,Lon Distance(km) Time Diff (sec)
1 05/07/2022 10:46:39 -0.02,-137.19 0.59,-139.85 303.74 80
2 05/08/2022 10:25:14 -0.02,-137.19 -0.43,-135.33 212.54 80
3 05/09/2022 22:49:50 0.01,-137.18 -0.76,-140.63 393.08 80
4 05/10/2022 22:28:26 0.01,-137.18 0.27,-136.11 122.95 80
5 05/12/2022 10:52:53 -0.01,-137.18 0.93,-141.37 477.33 80
6 05/13/2022 10:31:29 -0.01,-137.18 -0.10,-136.85 38.33 80
7 05/15/2022 22:37:20 0.01,-137.15 -0.12,-137.61 53.56 80
8 05/16/2022 22:15:55 0.01,-137.13 0.92,-133.09 461.29 80
9 05/18/2022 10:40:22 -0.01,-137.12 0.27,-138.35 141.16 80
10 05/19/2022 10:18:58 -0.01,-137.10 -0.76,-133.83 373.13 80
11 05/20/2022 22:43:33 0.01,-137.06 -0.48,-139.12 235.71 80
